Location: Bolzano
(46.5170°N, 11.3670°E)
Time: 14:16:41
(UTC+02:00)

ISS - Visible Passes

Search period start: 29 March 2023 00:00
Search period end: 08 April 2023 00:00
Orbit: 413 x 421 km, 51.6° (Epoch: 29 March)

Date Brightness Start Highest point End Pass type
(mag) Time Alt. Az. Time Alt. Az. Time Alt. Az.
29 Mar -3.4 20:32:29 10° WNW 20:35:47 56° NNE 20:38:12 17° E visible
29 Mar -1.6 22:09:28 10° W 22:11:07 22° W 22:11:07 22° W visible
30 Mar -3.2 21:21:07 10° WNW 21:24:21 47° SW 21:24:59 40° S visible
31 Mar -3.7 20:32:52 10° WNW 20:36:12 74° SSW 20:38:52 15° SE visible
31 Mar -0.9 22:10:57 10° WSW 22:11:48 12° WSW 22:11:48 12° WSW visible
01 Apr -1.7 21:21:52 10° W 21:24:23 20° SW 21:25:42 16° SSW visible
02 Apr -2.3 20:33:14 10° WNW 20:36:14 31° SW 20:39:13 10° SSE visible
04 Apr -1.0 20:34:12 10° WSW 20:35:53 13° SW 20:37:34 10° SSW visible
